CZ-3B DEB, 42458

Orbit data source: Space-Track

CZ-3B DEB, 42458 is space debris in HEO originally from a launch on Sat, 04 Sep 2010 UTC launched from the Xichang Space Center, China (XSC). Debris objects in space refer to the collection of defunct objects orbiting the Earth. Examples of debris include non-operational satellites, rocket bodies, and fragments generated from explosions, collisions, or faulty payload assembly.

Loading next visibility...
Identifier
42458, 2010-042Z
Orbit
HEO
Country
Flag of CNCN / PRC
Related business
Manufacturer
CALT
Mission
Spacecraft
Bus & Motor
Unknown
Mass
Unknown
Launch date (UTC)
2010-09-04 (16 years ago)
Launch vehicle
Unknown
Launch site
Xichang Space Center, China (XSC)
Object type
Payload
Rocket body
Debris
Shape & HBR
Unknown shape, 0.1 m
Radar Cross Section
Medium (>0.1 m² and <1 m²)

Expand to show TLE details & history
Last TLE update: 2 days ago

TLE from 2 days ago
0 CZ-3B DEB
1 42458U 10042Z   26234.81898476 -.00000048  00000-0  17272-2 0  9992
2 42458  29.5246 235.5101 7520615 256.4745  17.4687  1.81320276 77680
Epoch: 2026-08-22T19:39Z
TLE epoch observation values (Epoch: 2026-08-22T19:39:20.283Z)
Latitude
-0.00062°
Longitude
-30.49313°
Altitude
8,556.583 km
Speed
6.273 km/s
True Right ascension
15h 41m 51s
True Declination
0° 00' 02"
Sunlit
Object was in daylight at epoch
Visualization orbit readout
Latitude
Unknown
Longitude
Unknown
Altitude
Unknown
Speed
Unknown
Apparent Right ascension
Unknown
Apparent Declination
Unknown
Sunlit
N/A
Visualization observer readout
Local Sidereal Time
02:28:52
Azimuth
Unknown
Elevation
Unknown
Doppler factor
Unknown
Orbital elements
Apogee altitude
43,400.137 km
Perigee altitude
666.108 km
Semi-major axis
28,411.26 km
Eccentricity
0.75206
Inclination
29.5246°
RAAN
235.5101°
Arg. of periapsis
256.4745°
True anomaly
103.37069°
Mean anomaly
17.4687°
Eccentric anomaly
50.91617°
Mean motion
0.45322 °/min
Orbital period
794.32 mins
BSTAR
0.0017272
Loading maneuver chart data...
Computing Atmospheric mass density...
Loading historical data...
Loading historical data...
Loading historical data...
Loading historical data...
Loading historical data...
Loading historical data...
Loading historical data...

Documentation

Showing up to 5 results
|